Terug naar catalogus

STARLINK-37145

ActiefCommunicatieVLEO
NORAD 68548·PAYLOAD·🇺🇸 United States

Gelanceerd Apr 2, 2026 vanaf Cape Canaveral Space Force Station

Loading…

Volgende Passages (komende 24 uur)

TLE

VersSource: CelesTrak SupGP

Epoch: Sep 15, 2026, 04:12 UTC

1 68548C 26070G   26258.17548611 -.00057200  00000+0 -16904-2 0  2587
2 68548  53.1578 198.7834 0001257  89.0111  51.8861 15.34412224    15

Volg STARLINK-37145 in realtime met AllMySat

Download on the App Store